Weather History for Port Hope, MI

Change the Weather History Date:

Monday, December 3, 2012

  Actual Average Record
Temperature  
Mean Temperature 50 °F -  
Max Temperature 60 °F 37 °F 60 °F (2012)
Min Temperature 41 °F 28 °F 19 °F (2002)
Degree Days  
Heating Degree Days 14    
Moisture  
Dew Point 45 °F    
Average Humidity 89    
Maximum Humidity 97    
Minimum Humidity 79    
Precipitation  
Precipitation 0.01 in - - ()
Sea Level Pressure  
Sea Level Pressure 30.02 in    
Wind  
Wind Speed 4 mph (SSE)    
Max Wind Speed 12 mph    
Max Gust Speed 22 mph    
Averages and records for this station are not official NWS values.
T = Trace of Precipitation, MM = Missing Value Source: NWS Daily Summary

Daily Weather History Graph

Daily Weather History Graph

Search for Another Location

Airport:

Trip Planner

Search our weather history database for the weather conditions in past years. The results will help you decide how hot, cold, wet, or windy it might be!

Date:

Astronomy

Dec. 03, 2012 Rise Set
Actual Time 7:48 AM EST 4:53 PM EST
Civil Twilight 7:16 AM EST 5:26 PM EST
Nautical Twilight 6:39 AM EST 6:02 PM EST
Astronomical Twilight 6:05 AM EST 6:37 PM EST
Moon 9:45 PM EST (12/3) 11:06 AM EST (12/3)
Length of Visible Light 10h 10m
Length of Day
9h 04m
Waning Gibbous, 78% of the Moon is Illuminated
Dec 3
Waning Gibbous
Dec 6
Last Quarter
Dec 13
New
Dec 20
First Quarter
Dec 28
Full

Hourly Weather History & Observations

Time (EST) Temp. Windchill Dew Point Humidity Pressure Visibility Wind Dir Wind Speed Gust Speed Precip Events Conditions
12:51 AM 42.1 °F - 39.0 °F 89% 30.12 in - Calm Calm - N/A   Unknown
1:51 AM 43.0 °F - 37.9 °F 82% 30.13 in - Calm Calm - N/A   Unknown
2:51 AM 43.0 °F - 39.0 °F 86% 30.14 in - Calm Calm - N/A   Unknown
3:51 AM 42.1 °F - 39.0 °F 89% 30.16 in - Calm Calm - N/A   Unknown
4:51 AM 42.1 °F - 39.0 °F 89% 30.14 in - Calm Calm - N/A   Unknown
5:51 AM 42.1 °F 40.2 °F 37.9 °F 85% 30.14 in - South 3.5 mph - N/A   Unknown
6:51 AM 41.0 °F 38.0 °F 37.9 °F 89% 30.13 in - SSE 4.6 mph - N/A   Unknown
7:51 AM 42.1 °F 39.2 °F 39.0 °F 89% 30.14 in - SE 4.6 mph - N/A   Unknown
8:51 AM 43.0 °F 39.5 °F 39.9 °F 89% 30.14 in - SE 5.8 mph - N/A   Unknown
9:51 AM 46.0 °F 40.6 °F 39.9 °F 79% 30.12 in - SSE 11.5 mph 17.3 mph N/A   Unknown
10:51 AM 46.9 °F - 42.1 °F 83% 30.11 in - SSE 10.4 mph 19.6 mph N/A   Unknown
11:51 AM 48.9 °F - 44.1 °F 83% 30.06 in - SSE 9.2 mph - N/A   Unknown
12:51 PM 48.0 °F - 45.0 °F 89% 30.04 in - SSE 5.8 mph - N/A   Unknown
1:51 PM 48.0 °F - 46.0 °F 93% 30.01 in - SSE 9.2 mph - N/A   Unknown
2:51 PM 50.0 °F - 46.9 °F 89% 29.98 in - SE 8.1 mph - N/A   Unknown
3:51 PM 50.0 °F - 48.9 °F 96% 29.97 in - SSE 8.1 mph - N/A   Unknown
4:51 PM 51.1 °F - 50.0 °F 96% 29.95 in - SSE 8.1 mph - N/A   Unknown
5:51 PM 51.1 °F - 50.0 °F 96% 29.94 in - SSE 5.8 mph - N/A   Unknown
6:51 PM 52.0 °F - 51.1 °F 97% 29.92 in - Variable 4.6 mph - N/A   Unknown
7:51 PM 57.0 °F - 55.0 °F 93% 29.89 in - South 8.1 mph 17.3 mph N/A   Unknown
8:51 PM 59.0 °F - 55.9 °F 90% 29.86 in - South 8.1 mph 18.4 mph N/A   Unknown
9:51 PM 60.1 °F - 55.9 °F 86% 29.83 in - South 9.2 mph 21.9 mph 0.01 in   Unknown
10:51 PM 60.1 °F - 55.9 °F 86% 29.81 in - South 8.1 mph - N/A   Unknown
11:51 PM 60.1 °F - 55.0 °F 83% 29.81 in - SSW 8.1 mph 19.6 mph N/A   Unknown